GFSNIL_prec_cthk_000.txt.gz
RH
55 53 47 41 38 36 36 35 30 32 34 38 43 48 56 61 68 72 90 84 95 91
56 49 47 46 41 41 42 43 44 46 50 56 55 59 70 78 88 86 88 85 90 97
55 54 47 42 39 42 46 48 52 56 57 64 66 70 71 80 80 77 82 85 85 84
60 50 42 37 38 40 44 45 51 58 65 74 78 80 77 77 83 81 77 73 69 65
61 53 49 44 41 43 50 57 60 72 85 84 84 85 86 84 81 78 73 67 60 54
56 56 56 48 47 51 62 71 80 85 91 93 91 90 88 83 77 68 60 56 53 50
58 58 55 57 55 65 75 85 90 97 97 95 92 88 84 77 67 61 57 54 50 45
62 65 64 63 67 75 89 97 98 97 96 95 93 90 84 71 62 58 52 44 38 34
62 63 68 76 84 92 97 96 95 92 91 92 87 79 70 64 59 51 42 35 27 24
69 67 74 81 87 91 91 89 88 85 79 73 69 64 59 54 47 39 32 27 23 24
75 69 77 83 82 77 73 70 68 66 64 60 56 54 49 43 36 30 27 26 27 34
65 70 74 68 64 61 59 59 56 54 50 46 42 41 37 34 30 29 29 31 39 53
74 65 58 55 52 51 47 42 39 39 42 43 44 43 39 37 34 32 35 42 59 75
67 59 52 47 41 36 37 38 41 42 46 50 52 47 43 41 41 40 45 64 81 86

GFSNIL_prec_cthk_003.txt.gz
RH
66 63 55 55 52 48 42 41 43 42 42 42 41 44 43 48 52 54 62 65 68 75
56 55 57 58 50 47 42 40 44 46 48 52 54 64 67 68 72 73 77 78 82 87
64 63 61 53 50 45 42 44 46 52 56 60 66 70 75 82 84 79 80 81 83 84
69 61 57 48 42 46 47 52 52 57 63 74 80 88 89 96 94 92 87 84 81 78
62 62 52 47 46 52 58 58 64 70 75 85 91 93 95 93 92 91 88 83 74 69
63 58 57 55 58 60 64 70 71 79 87 93 94 92 92 91 90 89 84 72 65 63
60 63 65 62 66 68 76 78 80 86 91 93 91 91 89 88 89 84 74 68 65 62
63 68 65 67 69 75 81 82 87 89 90 89 86 84 83 79 73 69 65 61 58 52
63 61 59 63 68 75 78 77 75 73 71 69 68 66 64 62 61 59 58 54 48 42
54 51 57 62 64 63 59 56 53 53 54 54 53 52 52 52 52 51 46 43 41 37
58 60 61 62 59 54 51 46 41 37 35 36 38 41 42 43 42 42 39 36 33 36
62 63 64 58 50 42 33 31 32 34 37 40 40 42 45 46 46 46 43 38 40 43
71 68 62 47 37 33 34 35 37 43 49 51 53 53 52 50 49 45 44 44 46 51
77 66 42 38 38 36 37 45 52 57 61 62 62 58 53 51 52 52 51 51 54 68

GFSNIL_prec_cthk_006.txt.gz
RH
63 58 56 56 55 53 51 48 41 40 42 47 48 50 52 58 60 62 62 64 63 65
58 56 56 53 54 56 53 48 45 49 53 54 57 61 61 64 70 76 81 85 93 86
59 60 59 58 53 50 51 54 55 56 62 63 66 65 69 76 82 89 92 93 94 94
63 57 49 49 50 54 59 58 61 67 68 70 71 82 87 92 97 96 95 93 91 87
52 54 50 58 63 69 64 65 60 65 68 77 82 91 94 98 97 95 92 89 86 82
59 61 58 58 62 68 64 63 66 71 79 87 94 98 98 96 94 94 92 90 87 80
53 51 51 56 59 60 68 73 77 82 88 88 84 85 88 91 92 88 84 80 74 71
44 48 52 53 55 59 62 63 67 65 63 62 60 58 57 61 67 71 71 68 67 66
47 50 54 58 60 59 61 64 59 53 44 38 39 36 33 33 38 44 46 52 53 52
52 55 56 60 63 64 62 53 39 34 35 37 39 37 37 36 38 40 45 48 48 47
55 56 61 65 67 64 49 37 35 36 39 44 50 48 47 46 48 51 53 53 52 51
58 63 68 73 64 42 37 34 37 46 52 55 57 56 53 51 53 58 59 59 55 53
60 69 77 60 39 38 36 43 50 57 60 60 64 69 66 63 62 59 58 58 59 58
69 78 58 41 38 41 47 50 56 59 66 75 80 80 76 73 73 72 67 67 66 64

GFSNIL_prec_cthk_009.txt.gz
RH
63 65 62 58 55 55 53 50 52 51 49 52 53 58 60 61 55 57 63 65 70 69
70 68 65 64 62 52 49 50 50 54 52 53 56 60 61 66 64 64 70 76 83 87
73 72 65 60 56 54 53 49 48 52 60 62 62 67 68 69 73 76 81 88 91 94
65 63 63 61 61 55 52 47 47 48 52 60 65 71 79 80 88 93 95 95 93 90
66 60 63 60 48 46 45 48 53 56 62 69 80 85 94 95 91 94 95 97 96 94
64 53 46 39 38 43 48 51 54 59 68 73 81 86 83 81 85 88 89 90 91 91
42 39 41 43 48 50 51 54 60 63 67 68 64 58 53 46 44 41 50 60 63 69
43 42 45 49 49 51 54 61 63 62 60 52 46 49 40 37 34 34 38 42 46 51
48 47 52 51 50 54 59 61 65 53 48 50 48 46 40 41 43 43 44 47 49 49
55 56 56 55 55 62 68 68 55 53 52 51 53 53 48 47 50 52 53 57 60 60
61 59 57 59 62 71 67 57 54 53 52 52 57 62 59 62 64 68 71 71 70 66
60 63 64 64 72 70 59 57 53 52 54 56 63 72 73 72 72 76 76 76 75 72
63 68 71 75 77 64 58 57 52 53 58 62 70 77 78 80 77 77 76 76 82 76
83 79 77 85 71 58 56 58 55 56 60 69 78 85 89 90 91 92 87 86 87 81

GFSNIL_prec_cthk_012.txt.gz
RH
65 66 68 65 65 62 56 51 50 49 46 44 43 42 42 48 48 51 52 55 61 62
62 62 64 60 55 53 55 47 46 44 44 43 36 44 46 51 56 57 61 66 69 73
63 62 58 56 50 46 39 35 32 36 38 43 49 56 61 64 67 75 78 84 90 93
62 59 57 50 40 36 31 26 35 39 40 45 51 59 70 79 83 85 87 92 97 98
62 56 51 43 39 34 33 34 41 46 49 52 59 62 66 69 69 68 73 79 79 75
51 48 48 41 41 40 41 44 46 49 52 53 54 53 47 44 42 39 38 42 40 41
49 44 42 45 42 46 49 49 48 52 56 56 50 46 47 43 40 38 36 31 29 34
65 61 49 51 49 51 50 50 55 60 56 52 51 54 47 42 42 45 43 41 42 44
63 86 81 77 55 58 56 59 64 66 59 54 51 52 47 49 53 58 62 62 60 59
78 93 78 81 65 65 62 70 76 66 59 54 55 56 54 57 63 68 69 69 69 70
82 77 86 84 76 62 72 84 68 58 60 59 58 61 62 63 70 75 77 77 75 72
91 84 88 92 82 63 85 75 59 59 65 62 60 58 65 76 84 86 87 88 91 88
85 96 94 92 68 82 83 59 60 59 57 59 60 68 83 93 95 94 90 92 93 91
75 98 92 72 78 83 58 59 56 53 57 56 63 81 93 93 92 89 89 90 86 84

GFSNIL_prec_cthk_015.txt.gz
RH
58 58 61 62 62 56 51 45 43 41 34 30 32 35 38 42 46 50 50 52 56 59
69 68 65 63 56 50 50 41 37 31 28 31 34 36 43 46 49 53 58 66 72 77
64 62 56 53 50 42 37 34 26 26 31 35 39 45 47 52 55 61 69 79 85 90
47 44 44 46 42 41 38 29 32 34 34 37 39 44 48 52 52 51 47 47 52 58
53 54 57 54 57 67 51 54 54 49 48 46 43 47 48 45 44 41 43 45 44 44
60 58 71 76 76 66 73 68 64 56 58 51 48 48 46 47 45 45 45 44 43 42
56 51 57 73 73 80 92 79 71 57 71 53 54 50 46 45 44 45 45 48 50 51
46 61 75 75 71 95 89 82 69 74 74 61 47 47 50 49 50 51 49 52 54 56
48 62 62 70 76 91 87 88 71 77 74 50 46 53 60 61 57 54 56 59 64 68
44 50 54 63 86 92 92 80 77 74 66 46 56 61 63 57 55 65 77 82 82 79
35 41 48 65 98 96 88 86 74 70 49 58 61 59 53 55 70 84 91 92 89 83
41 45 53 76 95 88 86 78 73 50 52 52 53 51 51 68 83 86 88 87 87 89
46 54 56 59 78 81 76 66 49 51 50 51 51 50 60 80 82 83 86 90 93 96
57 64 72 77 82 73 62 49 50 50 52 52 48 49 67 76 78 82 90 95 97 98

GFSNIL_prec_cthk_021.txt.gz
RH
53 49 46 42 36 32 35 39 44 49 47 42 51 52 51 51 58 59 60 51 52 52
44 42 38 34 33 33 37 39 41 45 50 63 64 69 67 62 57 58 53 57 54 47
43 38 37 36 38 43 44 48 53 53 61 67 68 69 68 66 68 59 55 47 42 40
36 37 38 38 41 47 50 54 53 51 63 73 74 75 77 74 65 58 50 49 44 46
35 33 31 37 45 50 44 41 41 43 58 75 74 81 76 71 66 50 50 50 49 50
33 34 36 34 31 28 29 32 40 48 60 67 81 78 82 75 55 50 54 55 53 49
35 33 30 30 29 27 31 37 46 54 65 75 75 88 80 68 55 54 53 52 46 44
31 29 30 30 29 27 37 48 52 61 74 74 78 80 71 60 51 50 46 44 44 57
31 33 33 32 27 31 41 46 57 66 75 77 76 66 55 50 47 45 42 42 55 65
38 38 34 29 29 36 47 59 65 69 70 67 54 52 51 46 44 41 39 49 64 67
38 32 32 31 36 45 56 65 72 72 62 51 50 52 47 41 39 37 41 63 69 78
33 32 34 38 45 55 62 70 75 63 51 51 51 48 44 39 37 37 51 70 79 88
32 35 37 43 52 62 70 74 59 51 51 49 46 47 42 38 39 40 57 74 86 92
38 39 41 48 56 64 62 56 53 51 47 45 48 47 42 40 41 44 61 76 87 95

GFSNIL_prec_cthk_024.txt.gz
RH
49 46 44 41 38 36 37 36 35 39 42 44 46 47 46 47 50 55 52 59 53 51
48 46 41 39 38 37 37 37 41 43 47 48 48 48 55 59 64 62 62 62 52 47
46 42 41 38 39 36 37 39 41 41 41 45 47 52 59 65 69 68 67 64 51 43
47 43 42 40 36 33 31 29 29 36 43 46 47 63 65 66 71 76 74 70 48 44
48 44 40 36 31 30 29 28 30 38 42 51 55 54 66 70 74 74 68 59 47 45
44 39 35 30 29 28 27 26 32 42 46 54 51 67 69 72 73 67 58 49 46 44
40 35 33 31 31 30 28 29 33 43 49 53 61 71 73 69 62 53 49 47 43 41
39 35 34 32 31 30 30 33 39 43 50 60 68 68 63 56 48 48 45 41 37 36
37 35 34 32 31 33 34 37 43 54 62 64 71 69 50 47 45 46 41 35 35 38
38 36 33 33 34 36 37 41 51 61 66 71 69 48 45 44 45 42 37 36 36 49
36 34 33 35 34 39 43 50 59 65 72 65 49 46 45 43 43 38 37 38 40 60
35 33 34 35 36 41 49 58 64 65 55 51 50 46 43 45 42 38 38 40 45 66
35 34 35 39 41 45 52 56 58 55 53 52 48 45 45 47 42 38 39 42 47 68
36 36 38 41 45 49 53 53 55 54 54 51 47 46 49 49 43 40 41 43 44 66

GFSNIL_prec_cthk_027.txt.gz
RH
55 52 51 51 49 45 41 40 39 39 39 39 41 35 38 39 43 48 49 52 58 54
60 57 55 52 47 44 40 36 35 32 32 31 33 41 51 44 52 55 57 54 55 56
61 59 55 50 47 40 32 28 27 26 27 32 40 51 54 50 56 56 56 60 58 56
59 55 53 47 37 31 30 30 27 27 30 36 42 47 47 51 55 59 65 64 58 54
55 54 48 37 34 35 33 29 28 29 34 39 46 47 49 54 63 68 66 60 55 46
54 47 39 38 39 35 31 29 29 33 37 42 48 52 54 65 68 64 58 52 45 46
48 43 42 43 38 32 29 31 33 35 42 43 51 58 66 72 72 58 47 45 45 40
46 45 45 41 34 30 32 33 33 38 43 52 59 65 70 74 50 42 43 42 39 35
45 47 43 35 32 33 34 33 34 39 48 57 64 70 71 48 43 41 40 40 37 35
47 42 37 34 34 33 33 35 39 46 54 60 64 55 48 45 41 41 41 40 36 38
43 39 37 35 33 33 34 37 43 49 54 55 51 49 47 42 43 43 43 38 37 42
41 39 36 33 33 35 36 41 46 48 49 51 52 49 45 44 45 46 42 37 42 44
41 36 35 34 35 35 39 44 49 51 52 51 50 44 43 46 47 46 39 40 40 38
35 33 34 34 36 40 45 49 54 53 53 53 51 46 47 48 51 44 40 40 38 36

GFSNIL_prec_cthk_030.txt.gz
RH
60 63 66 58 56 52 53 51 45 39 42 41 49 51 52 51 52 59 53 54 60 58
66 68 59 53 48 51 48 44 42 43 43 43 48 49 51 50 53 54 50 58 61 64
67 62 55 52 51 47 43 39 38 37 38 40 41 47 51 49 54 56 56 60 65 69
66 59 56 51 47 44 40 39 37 35 34 39 44 48 51 54 57 51 60 67 69 64
59 58 52 47 45 43 44 40 38 38 41 40 45 48 50 50 56 60 68 71 73 58
58 53 46 48 47 48 43 38 38 43 41 40 42 42 45 53 61 70 73 71 55 47
56 48 50 50 50 45 41 40 40 41 34 35 41 47 54 60 67 75 67 49 44 42
50 51 51 53 48 45 42 40 43 39 36 38 45 52 58 65 65 50 47 42 42 42
51 52 54 52 47 44 41 45 43 42 41 42 48 48 52 49 46 46 43 44 43 45
52 56 54 49 47 44 43 42 42 45 44 47 51 48 46 47 44 46 46 45 46 44
61 57 52 48 45 45 39 39 45 46 47 49 48 46 47 44 42 46 47 49 47 43
59 55 50 47 46 41 34 42 48 47 51 52 52 48 48 43 45 49 52 49 43 42
56 52 47 44 36 34 37 45 46 51 54 55 54 50 48 45 48 52 53 44 41 42
53 47 41 39 37 39 45 46 47 50 55 56 54 55 50 49 49 54 48 42 42 44

GFSNIL_prec_cthk_033.txt.gz
RH
59 63 68 70 67 57 60 60 53 48 49 49 48 49 49 50 51 54 54 66 64 57
61 71 83 65 58 61 56 50 45 47 48 46 42 41 47 47 53 53 65 64 63 62
70 77 68 56 58 54 48 47 45 47 46 44 44 42 48 50 48 64 61 63 62 59
82 77 63 58 56 49 47 47 49 49 48 48 48 50 44 49 54 54 58 57 60 68
81 65 55 56 51 51 51 51 52 51 51 50 48 43 41 45 46 49 53 58 66 74
73 65 56 53 54 55 57 56 54 54 52 54 46 40 42 43 47 54 59 64 71 67
70 61 56 57 60 61 61 58 57 54 60 47 39 41 43 49 56 55 58 59 51 49
63 59 56 62 64 67 62 58 56 59 54 45 43 42 40 47 54 48 48 51 50 47
63 56 62 65 72 65 60 56 54 59 57 47 44 39 40 42 43 40 44 45 46 47
65 62 70 74 67 62 59 54 55 61 54 47 49 42 43 42 43 41 46 46 49 50
67 72 74 69 65 59 55 60 56 58 49 52 50 46 45 46 44 45 49 51 53 53
70 76 72 66 58 60 60 57 50 53 53 53 55 53 51 48 47 47 50 54 55 50
77 67 63 62 60 61 58 53 51 48 51 54 61 56 54 51 52 49 51 55 52 47
67 66 61 59 57 56 53 53 46 44 50 55 58 63 58 53 54 49 51 53 47 46

GFSNIL_prec_cthk_039.txt.gz
RH
56 54 58 61 63 66 66 69 68 68 66 59 56 50 39 45 47 46 48 51 54 55
58 61 66 67 68 63 77 79 66 56 61 64 48 40 46 52 50 50 54 57 50 53
62 65 70 75 77 80 72 86 78 62 65 58 48 52 57 53 55 61 61 54 49 52
66 69 78 77 73 73 82 88 73 59 60 52 51 61 58 58 54 55 51 51 50 53
67 72 76 72 75 79 84 86 72 50 60 64 64 66 59 63 59 53 52 51 51 48
69 72 72 74 83 75 80 72 57 70 72 71 66 63 65 65 58 56 54 52 49 47
66 72 73 76 78 85 78 70 76 76 80 67 67 70 65 62 58 57 55 51 49 43
70 73 76 82 82 82 81 75 83 79 72 70 72 73 66 64 65 58 52 49 39 32
72 81 86 82 90 85 85 87 82 80 75 75 75 73 71 67 60 60 52 41 34 36
81 82 84 93 91 89 90 87 80 81 81 75 73 68 69 65 60 60 52 47 38 40
88 93 92 92 91 92 89 87 83 82 79 75 67 66 64 64 61 57 58 57 46 45
95 94 95 93 91 85 81 83 80 78 74 67 61 64 63 60 56 60 64 60 50 46
96 96 92 86 81 79 80 76 71 65 64 63 62 61 58 52 54 61 63 60 50 50
94 90 83 79 76 74 68 64 60 57 59 57 52 51 52 54 60 63 65 59 54 53

GFSNIL_prec_cthk_042.txt.gz
RH
57 62 67 68 68 76 83 84 82 85 87 81 79 69 64 52 49 53 54 53 54 56
71 73 72 77 83 85 88 79 96 82 73 82 75 72 65 53 54 58 59 60 57 62
76 79 81 86 88 89 83 82 78 82 86 78 70 67 54 59 64 63 62 58 58 57
76 84 86 85 84 82 71 86 80 85 77 65 62 54 64 70 64 63 63 60 60 62
73 73 75 69 71 81 91 77 78 77 70 71 68 75 73 67 72 71 68 62 61 63
78 75 71 73 75 69 74 78 80 76 76 79 76 72 71 71 73 74 74 70 65 61
81 78 71 69 71 74 77 79 81 84 85 80 80 80 78 83 79 81 76 71 68 63
83 81 77 78 75 80 85 87 86 86 84 88 82 82 84 80 79 81 78 70 66 60
79 77 78 79 85 91 93 91 92 91 87 84 84 84 82 81 76 78 78 71 64 56
78 78 86 91 93 92 93 92 91 86 84 80 82 78 76 72 72 68 66 62 57 56
83 87 90 91 95 96 95 91 82 80 76 71 66 63 64 60 59 58 54 57 60 64
91 98 96 97 96 90 80 74 65 59 56 57 51 47 47 48 52 54 57 57 62 66
96 97 89 82 70 62 57 54 51 49 44 38 34 38 44 49 50 53 57 60 64 64
89 85 71 58 50 42 34 26 27 28 30 33 37 43 49 53 53 56 62 66 69 67

GFSNIL_prec_cthk_045.txt.gz
RH
66 74 66 70 75 85 93 86 87 86 89 96 89 90 81 80 74 72 62 56 60 68
68 73 73 81 86 95 91 89 97 87 89 90 92 94 75 73 65 56 58 65 71 64
66 70 82 88 94 91 87 96 75 72 86 97 84 71 71 62 62 68 73 74 70 65
68 78 85 85 79 75 80 74 82 91 77 75 74 75 74 75 80 80 76 74 70 67
82 85 85 85 86 88 87 85 81 81 82 82 85 87 83 83 77 73 74 76 76 70
84 85 83 86 85 92 84 86 90 85 86 89 90 89 82 78 76 76 76 75 79 79
86 81 84 90 89 84 83 83 88 89 92 94 92 88 87 83 80 77 79 77 73 74
80 84 88 87 87 89 79 85 88 93 92 94 95 87 82 78 75 71 63 60 61 61
84 86 82 79 80 84 89 95 93 93 96 94 85 78 72 58 51 44 44 47 45 46
78 79 80 83 88 90 91 96 98 93 81 63 58 49 36 30 32 36 39 46 49 53
75 78 83 87 91 97 98 92 83 72 49 39 29 25 26 30 34 37 41 48 52 55
80 87 88 90 96 96 86 72 48 33 24 22 21 22 25 30 35 40 44 47 49 52
93 98 98 90 79 62 46 28 19 18 19 19 20 25 29 33 39 44 46 50 52 56
93 91 79 63 46 28 18 17 17 18 20 22 25 28 32 36 42 49 50 51 55 61

GFSNIL_prec_cthk_048.txt.gz
RH
67 78 82 82 87 79 81 83 85 89 94 92 84 78 85 87 78 71 71 64 63 67
71 76 81 84 89 85 85 85 95 90 86 76 80 89 92 80 73 70 69 69 72 75
66 73 76 78 78 85 89 83 83 81 83 88 97 89 81 78 76 76 80 78 74 69
71 74 77 85 87 88 87 88 91 93 94 87 87 86 88 83 87 81 78 78 73 73
84 88 88 86 85 88 92 91 90 95 89 86 86 92 91 93 84 82 80 75 73 64
83 85 86 83 85 87 90 90 90 86 96 92 94 97 96 89 87 78 71 53 46 35
76 87 85 85 84 87 84 92 87 89 89 95 94 96 94 86 74 65 48 32 31 32
75 87 81 78 76 83 79 85 84 86 92 96 97 93 79 66 56 43 29 28 31 34
66 70 72 74 77 79 77 87 90 92 95 95 88 72 60 51 37 25 25 29 34 38
68 73 74 74 72 80 88 94 96 98 90 74 59 40 32 24 22 23 27 32 37 42
71 71 74 81 88 93 97 98 97 82 63 41 27 22 21 21 23 25 29 36 42 47
72 76 83 89 95 97 96 86 72 50 28 18 17 18 19 22 25 28 34 42 49 52
78 85 89 91 87 82 72 57 33 18 16 15 15 19 22 26 30 34 39 48 54 56
82 86 84 75 65 53 35 20 15 13 14 15 18 20 25 30 37 42 46 49 49 51

GFSNIL_prec_cthk_051.txt.gz
RH
74 67 67 78 95 95 94 94 92 91 91 93 93 88 87 90 91 87 83 75 70 70
56 63 75 83 94 92 95 96 95 94 93 93 93 95 91 94 91 83 78 82 79 76
62 74 77 87 93 92 95 97 97 92 96 99 96 97 95 91 85 89 90 84 76 68
76 78 81 89 90 93 97 95 95 97 96 95 91 98 93 94 95 89 83 79 71 64
77 83 86 90 91 93 94 95 97 95 98 94 95 89 92 97 90 81 79 70 64 57
81 86 86 87 91 91 90 88 87 94 92 91 97 95 92 91 85 83 71 62 53 37
67 72 79 78 86 90 85 81 80 85 87 89 97 94 94 90 81 71 62 40 28 27
61 62 65 66 67 69 77 77 79 78 90 96 96 97 91 83 70 55 35 26 26 26
58 54 56 61 69 78 68 76 76 87 93 95 96 95 81 64 47 31 25 24 23 25
54 59 64 66 68 74 74 83 88 94 97 98 88 69 54 38 25 24 23 22 24 28
58 61 64 66 76 80 83 89 92 92 83 73 56 37 24 21 21 21 20 22 25 29
62 64 64 72 81 83 84 81 78 71 58 37 24 20 18 19 19 20 21 25 30 37
64 69 71 76 78 76 70 67 56 36 26 22 19 16 17 19 22 23 26 30 37 42
69 70 72 67 63 54 45 34 26 23 22 20 19 19 21 25 31 34 34 36 36 39

GFSNIL_prec_cthk_054.txt.gz
RH
85 84 81 77 73 73 84 81 99 94 96 97 97 95 88 89 92 97 91 95 82 88
76 78 78 68 71 79 88 92 98 98 96 96 95 93 91 97 97 97 90 89 95 83
60 58 62 70 77 84 92 96 98 96 97 96 94 96 97 93 92 95 96 97 86 81
55 65 75 79 80 85 90 95 98 96 95 98 94 90 95 97 96 93 98 94 85 83
65 68 73 80 87 90 94 94 94 92 95 93 90 87 92 88 94 92 96 89 85 77
54 55 61 69 83 84 88 82 83 88 92 81 79 87 87 88 94 97 95 90 77 71
54 53 52 55 63 69 75 79 74 75 79 81 82 87 87 94 98 94 90 84 68 52
54 53 55 60 62 64 64 66 68 79 80 80 82 88 94 96 92 87 75 58 43 35
55 55 57 56 54 59 61 67 71 79 78 83 89 92 95 88 75 60 47 38 34 33
44 46 50 55 58 63 62 66 76 80 86 86 89 84 73 57 41 35 33 33 33 30
51 55 57 55 58 59 65 72 76 79 78 72 71 59 42 32 28 30 28 27 30 32
52 53 57 59 62 64 66 69 68 66 60 49 40 32 26 25 24 27 27 27 31 35
54 58 60 62 64 63 58 55 47 40 35 30 29 30 26 26 27 26 28 26 30 29
60 62 63 57 50 44 41 36 34 32 30 29 28 23 20 18 17 17 17 19 20 21

GFSNIL_prec_cthk_057.txt.gz
RH
91 88 83 78 79 82 80 78 79 87 92 88 96 98 97 98 97 93 94 95 95 90
80 87 77 71 72 74 79 84 86 89 96 96 94 98 98 97 97 96 96 96 90 92
78 76 75 68 65 72 79 83 87 91 93 95 97 97 96 97 98 97 95 93 90 85
67 63 63 60 67 76 77 79 86 93 94 97 94 86 94 98 91 91 86 84 82 81
63 59 63 67 65 65 66 69 74 81 96 86 80 86 86 78 84 82 86 81 82 89
58 63 59 59 61 60 60 62 69 72 74 76 72 66 77 77 74 74 79 85 90 92
59 57 58 59 59 56 57 62 68 69 67 68 71 75 75 80 78 82 87 90 87 80
60 63 62 58 57 63 62 66 64 63 67 69 71 71 73 80 86 86 84 78 66 55
67 62 58 56 53 55 57 58 58 61 66 68 70 77 80 84 80 70 61 50 43 39
52 48 45 44 48 52 55 56 58 60 65 71 72 72 66 60 52 42 36 33 33 36
47 44 45 49 51 50 51 55 58 62 63 62 62 54 46 38 33 31 30 29 31 33
40 43 46 48 50 53 55 57 59 56 52 47 44 41 37 33 30 28 29 30 29 28
42 45 49 51 54 55 55 50 46 42 39 39 41 42 40 33 29 24 22 22 22 21
47 50 52 53 52 47 42 40 41 37 39 42 41 38 32 27 24 23 22 21 20 18

GFSNIL_prec_cthk_060.txt.gz
RH
77 72 85 87 83 76 77 77 75 82 84 86 91 96 94 93 94 98 97 98 97 95
78 63 70 73 83 82 78 72 75 77 78 84 89 92 92 91 93 96 97 98 97 95
75 81 66 71 91 82 70 72 76 79 76 75 77 82 89 88 86 87 84 83 84 82
74 77 89 78 64 66 73 68 67 65 63 66 64 76 93 98 90 82 73 73 75 78
84 80 75 69 66 72 65 62 61 63 61 60 63 69 73 73 75 68 71 74 73 78
72 70 67 62 66 63 62 61 63 64 65 67 68 67 67 74 67 71 72 74 78 85
64 59 59 62 64 66 66 66 64 62 63 64 69 67 66 69 70 70 74 80 84 82
59 62 64 67 68 69 64 62 57 58 55 66 64 67 67 68 70 74 77 78 67 58
69 72 71 71 66 59 53 49 52 54 54 58 60 64 66 71 71 74 62 52 43 40
67 66 65 57 50 46 43 45 49 50 53 56 60 61 64 61 54 44 37 36 36 36
63 60 55 51 46 43 44 45 48 51 52 54 55 53 50 44 40 39 37 35 35 36
58 56 50 45 43 45 46 48 50 51 50 46 43 41 42 40 39 36 32 30 29 27
52 46 40 42 44 46 48 48 47 45 42 40 40 42 40 37 33 30 30 30 27 25
44 41 43 45 47 46 46 45 42 38 38 38 39 38 35 33 30 29 29 28 27 26

GFSNIL_prec_cthk_063.txt.gz
RH
67 71 74 73 76 73 73 74 78 84 87 89 84 79 79 80 85 86 89 91 93 97
66 68 72 64 68 78 79 86 81 78 78 74 73 72 67 66 63 75 87 90 93 92
59 61 66 74 77 94 96 87 82 78 64 65 63 64 60 58 69 75 78 77 91 82
63 73 82 78 94 84 80 73 78 66 64 62 62 62 60 59 64 63 60 66 69 67
81 91 91 97 93 91 76 72 68 65 65 64 62 57 59 54 62 58 66 72 67 70
68 69 83 81 73 64 64 57 61 66 66 61 57 60 55 68 71 66 65 68 70 71
73 70 65 62 58 57 60 63 64 62 58 55 57 58 56 70 63 64 65 67 70 72
54 54 55 53 52 61 63 65 62 58 52 49 53 55 62 60 62 66 68 68 68 61
50 54 56 61 62 64 65 61 54 47 46 51 54 56 56 59 61 61 66 62 49 38
51 56 66 63 58 61 55 51 46 42 45 47 49 52 54 58 57 55 47 36 33 35
56 60 59 56 54 53 53 45 40 42 43 46 48 51 52 50 43 36 35 37 38 35
59 55 53 53 52 54 47 39 40 42 44 47 49 47 42 39 39 39 40 36 33 33
56 54 52 51 54 50 40 42 44 45 45 43 40 41 41 42 42 36 35 33 35 35
47 48 52 52 48 41 43 45 45 42 40 39 42 43 43 40 36 36 36 36 37 36

GFSNIL_prec_cthk_066.txt.gz
RH
59 70 74 78 80 83 83 78 70 80 80 92 92 92 79 72 69 69 66 63 75 82
61 67 81 83 81 77 80 84 86 85 84 92 90 73 69 66 67 62 67 65 79 74
62 70 71 80 81 90 91 93 93 84 88 88 75 64 61 63 61 55 58 58 66 58
66 68 72 78 91 97 98 94 72 74 79 82 71 63 62 64 54 55 56 57 57 58
78 80 78 90 94 96 78 77 80 77 76 72 69 65 58 53 53 55 60 68 68 61
88 93 93 88 85 82 74 65 67 70 70 72 68 61 57 57 57 61 64 71 69 64
75 84 85 79 74 68 66 63 68 75 74 71 64 61 54 60 64 56 65 70 65 67
57 58 66 69 63 67 65 72 73 72 70 68 65 55 61 51 61 61 71 65 67 70
49 55 66 60 66 70 72 73 68 70 72 66 58 51 51 60 61 64 62 64 63 62
56 59 58 61 66 70 73 68 68 64 61 59 51 50 54 56 57 58 59 57 50 38
56 61 58 61 64 67 66 67 61 59 60 51 46 49 51 53 54 52 43 35 36 37
59 61 64 67 69 69 63 57 55 56 51 45 46 48 49 49 41 34 35 37 39 36
55 61 64 67 64 59 56 50 51 50 46 44 46 47 42 37 35 36 39 40 41 38
55 58 60 56 53 51 49 50 50 47 46 47 44 40 38 38 41 44 45 47 47 45

GFSNIL_prec_cthk_069.txt.gz
RH
47 53 56 60 64 64 65 64 65 68 81 83 84 89 93 92 88 74 72 70 64 68
48 52 57 63 68 73 75 82 87 84 81 83 88 94 93 91 77 71 67 66 63 61
54 57 60 64 77 82 91 92 96 96 94 89 92 94 88 82 72 65 64 60 54 56
59 62 66 66 67 77 91 93 97 95 91 91 86 91 82 76 70 66 61 55 51 61
72 71 66 74 75 74 85 87 77 81 81 85 85 81 79 72 70 67 65 55 58 55
80 64 70 75 89 89 89 88 76 71 81 86 85 77 74 75 68 68 59 58 60 59
70 57 67 78 95 88 86 87 78 74 76 73 72 74 74 73 69 63 57 56 58 57
65 62 62 66 71 68 72 75 72 75 76 72 69 69 75 72 66 56 58 66 57 55
64 61 60 60 63 64 65 67 73 77 74 71 69 73 73 71 59 54 60 58 60 64
60 59 56 59 59 57 60 65 74 75 72 70 75 73 70 66 58 55 59 65 64 66
57 58 57 56 59 59 62 70 78 81 81 81 74 66 66 64 59 59 63 64 64 64
59 58 55 56 58 66 75 79 82 84 82 72 67 64 66 63 60 62 63 62 57 46
48 52 59 63 65 71 80 85 87 80 70 66 64 67 66 60 60 60 56 45 40 41
49 54 60 63 68 71 80 82 73 69 66 69 70 68 63 61 59 50 44 42 41 46

GFSNIL_prec_cthk_072.txt.gz
RH
50 55 60 60 61 63 64 63 65 65 64 65 61 61 66 75 81 89 92 96 91 79
52 55 58 61 64 68 71 72 68 67 71 70 73 73 82 85 95 92 92 87 77 75
49 51 55 56 61 63 68 71 71 72 70 72 75 81 85 90 97 89 88 80 76 70
54 58 60 62 61 58 65 71 75 84 93 96 96 90 89 90 96 93 91 86 74 67
57 60 62 61 66 66 71 75 75 84 91 83 80 95 90 89 93 89 86 87 72 67
66 65 71 57 66 69 73 82 84 86 83 72 79 86 85 87 92 86 88 85 77 66
54 59 69 54 58 65 76 85 88 85 80 83 80 80 79 80 83 80 78 82 76 72
48 61 63 61 59 62 71 78 72 77 83 87 80 79 79 76 71 73 77 84 77 68
50 56 63 67 62 62 65 73 72 73 79 81 82 83 81 73 75 75 75 77 74 69
45 47 63 71 66 67 67 69 76 80 78 77 81 80 82 85 87 82 77 73 69 69
36 36 48 59 66 67 65 66 73 77 73 76 79 81 89 94 90 77 71 69 68 62
38 40 46 54 59 61 71 70 68 68 73 77 84 86 98 87 76 68 69 68 68 64
42 45 51 51 53 58 60 60 60 65 71 81 87 97 86 72 71 70 72 72 70 68
56 53 52 50 52 56 59 62 65 70 79 83 90 74 72 71 73 76 77 77 72 68

GFSNIL_prec_cthk_075.txt.gz
RH
50 51 54 57 60 61 65 65 71 73 72 75 76 74 75 76 71 69 69 74 78 84
49 51 52 54 56 60 61 62 63 62 62 63 64 66 69 68 66 69 72 77 81 88
44 47 52 55 57 61 65 65 64 66 66 68 69 71 72 73 71 75 79 84 92 92
48 49 53 58 62 63 64 63 64 71 71 72 75 76 76 79 82 89 96 95 90 91
58 54 55 57 59 61 62 64 60 64 67 69 73 81 89 92 93 95 98 96 92 93
57 60 58 62 62 64 58 65 68 70 77 83 82 89 93 86 92 99 98 93 95 94
51 52 52 56 62 59 55 63 68 71 79 86 89 88 81 85 79 88 90 88 91 84
49 51 49 50 59 60 59 61 70 73 77 84 91 90 87 93 89 86 85 79 73 74
47 50 47 51 54 59 62 62 64 67 71 78 84 80 81 88 87 85 83 77 76 75
39 41 40 44 49 57 69 68 63 68 71 73 77 81 83 88 88 85 82 83 86 87
43 40 39 39 37 47 63 65 64 66 69 70 76 80 81 82 83 84 84 87 93 94
49 44 44 42 43 49 58 63 65 65 70 70 71 70 69 73 75 83 88 98 98 91
59 53 53 52 50 49 53 56 59 60 61 65 66 64 67 70 76 84 96 97 96 75
62 62 62 63 59 57 56 53 52 56 58 61 65 69 72 78 87 88 98 89 72 72

GFSNIL_prec_cthk_078.txt.gz
RH
51 55 60 64 66 65 65 67 72 74 75 78 83 86 87 91 93 85 76 76 74 73
50 51 54 56 58 57 58 59 63 67 68 73 74 79 82 84 79 76 77 77 74 71
49 50 52 53 52 53 56 59 60 63 65 67 71 76 77 76 76 76 78 73 71 73
51 53 55 58 60 64 67 67 67 68 71 74 77 76 74 74 77 78 76 76 79 79
51 56 55 57 57 60 65 67 70 73 74 73 78 81 79 79 80 86 84 87 87 87
47 48 48 56 58 58 65 67 70 68 71 72 69 74 80 78 73 75 77 85 83 94
47 42 44 50 53 54 59 62 63 60 63 71 69 72 72 77 82 84 84 79 78 86
47 49 50 46 48 49 54 62 60 59 63 66 66 63 70 78 90 90 85 87 86 84
48 47 50 53 55 53 53 59 63 60 63 64 63 63 71 76 84 85 86 86 84 86
47 47 49 53 57 57 58 60 62 63 67 69 66 69 73 77 78 77 77 81 86 90
48 46 45 41 43 44 46 50 58 69 73 72 68 69 76 79 79 80 80 83 86 87
50 47 47 45 45 46 43 45 50 56 69 73 71 71 72 76 78 78 79 80 82 83
55 57 53 51 54 54 55 56 53 53 58 64 66 67 67 70 72 76 77 78 79 80
58 62 67 61 56 59 59 62 64 59 58 56 57 61 63 70 72 74 74 76 79 84

GFSNIL_prec_cthk_081.txt.gz
RH
53 55 62 64 66 66 66 72 79 83 83 83 85 85 85 86 87 84 85 84 86 89
49 52 53 55 58 56 57 61 68 71 73 77 80 82 82 85 87 84 87 92 92 89
44 50 53 53 55 55 57 58 61 63 63 64 69 71 74 78 81 83 86 90 90 85
41 47 55 59 59 62 68 67 68 65 61 61 64 67 71 72 75 76 78 80 81 80
41 46 47 48 55 62 64 63 65 66 63 64 68 70 71 74 77 78 78 81 85 84
42 43 45 45 48 55 61 62 63 66 66 68 66 70 71 72 77 76 75 77 77 79
46 48 47 47 47 51 53 55 55 57 64 63 64 64 69 74 70 71 78 79 81 79
54 55 53 49 49 49 49 51 53 55 59 63 61 63 69 71 72 71 71 77 83 83
49 51 51 53 54 52 50 53 56 53 55 59 58 57 63 68 71 69 69 73 76 85
50 48 49 55 56 55 56 57 55 57 59 58 61 59 61 70 72 74 76 77 74 82
55 53 53 53 53 54 56 56 59 54 56 59 60 63 70 74 75 75 74 76 78 82
59 60 60 56 52 52 50 47 45 47 48 51 55 60 66 79 82 80 80 79 80 81
65 63 58 61 59 59 54 55 58 60 59 61 62 62 63 68 74 77 78 79 77 78
71 70 66 67 65 63 59 63 60 68 72 69 71 74 71 68 67 73 73 73 75 77

GFSNIL_prec_cthk_084.txt.gz
RH
47 50 51 54 64 74 77 77 77 82 81 83 82 87 91 91 95 94 92 89 91 93
48 48 50 53 53 54 57 58 61 65 67 70 74 81 84 89 87 92 92 88 94 91
42 50 54 57 57 58 58 55 52 52 56 62 64 71 76 78 79 85 84 88 89 88
37 43 50 57 60 61 63 62 59 60 61 62 63 64 67 68 71 74 78 78 80 85
36 40 45 49 52 54 55 62 62 62 65 67 68 67 68 70 70 73 76 79 80 81
37 41 42 45 50 52 53 56 63 62 61 61 66 71 71 70 72 76 77 80 83 83
43 46 48 51 52 54 54 54 56 58 59 61 61 65 66 67 67 69 74 79 79 80
49 52 55 57 56 56 55 54 56 56 58 60 62 59 62 65 64 64 71 77 80 78
57 56 55 55 54 55 55 52 55 57 57 58 59 58 60 66 68 68 71 69 71 74
57 56 54 54 53 51 54 62 59 58 58 56 58 59 63 66 71 72 71 73 78 78
58 58 58 57 56 56 57 59 60 61 63 63 59 59 57 64 72 76 75 79 82 82
68 67 64 62 59 63 63 63 61 62 63 60 55 54 53 56 58 64 68 72 76 79
70 69 68 67 69 74 70 68 67 68 67 60 61 59 58 61 64 69 70 72 69 70
68 68 72 71 77 77 80 71 72 71 69 71 73 74 72 71 73 73 76 79 78 77

GFSNIL_prec_cthk_087.txt.gz
RH
44 46 49 55 65 74 80 81 83 83 82 82 82 80 78 78 84 87 93 96 96 93
41 44 47 51 55 58 62 66 66 68 75 74 74 76 77 84 85 88 92 90 92 93
37 41 50 54 55 55 59 57 56 56 59 62 66 68 72 76 81 82 86 88 90 91
32 36 43 50 57 57 56 58 60 61 63 61 58 61 65 65 69 71 78 83 88 88
34 36 38 42 49 53 52 53 56 62 61 63 64 65 64 61 63 72 72 76 81 78
36 38 39 43 44 47 50 52 52 57 62 59 58 60 62 66 69 71 72 73 75 73
41 44 46 46 47 49 53 53 52 52 54 55 55 53 54 58 63 66 69 69 71 74
51 52 52 51 53 56 56 56 57 57 56 56 54 52 54 58 59 63 68 68 68 69
57 57 57 59 60 61 60 57 56 56 58 57 58 57 58 61 63 64 64 67 69 67
64 59 59 61 63 61 60 61 56 57 65 66 64 62 64 66 69 68 69 67 68 70
71 68 68 67 61 62 66 65 64 61 61 65 67 67 69 72 72 70 67 66 64 66
76 71 70 69 65 66 69 68 68 67 67 65 65 70 71 76 72 68 64 63 63 66
72 72 76 76 78 74 76 73 77 75 79 78 74 72 72 79 79 75 73 74 75 77
65 66 71 73 82 82 80 82 81 84 85 85 82 79 84 83 85 86 86 86 88 89

GFSNIL_prec_cthk_090.txt.gz
RH
39 42 46 53 61 71 84 88 92 92 92 92 93 94 93 90 87 84 84 84 83 86
37 39 44 49 57 64 70 78 84 85 83 82 83 84 88 87 85 83 82 81 83 84
33 37 44 48 50 56 61 63 63 62 64 67 69 71 73 74 73 77 79 80 81 88
30 33 39 45 49 52 57 60 62 62 64 64 61 62 63 63 67 68 71 77 82 85
29 31 35 40 47 50 50 52 53 60 63 64 66 64 62 61 62 62 64 71 75 76
29 33 36 38 42 47 49 51 54 54 57 60 61 62 66 68 66 65 65 68 71 73
32 34 41 43 45 46 49 52 56 59 57 59 58 57 59 59 59 61 62 67 70 70
54 48 44 44 49 52 53 56 59 62 62 64 62 60 58 59 60 60 62 63 64 65
62 62 63 61 56 55 56 58 61 60 61 60 61 61 62 66 66 67 66 65 66 66
71 74 75 77 75 69 68 68 64 62 61 57 55 60 65 70 73 72 70 69 67 65
85 81 79 78 75 73 71 71 69 64 63 64 60 60 64 72 77 74 71 71 72 69
81 82 84 80 76 79 81 78 77 77 74 72 69 69 70 75 75 77 76 74 74 71
65 69 76 82 81 81 82 82 86 87 87 85 82 80 81 79 80 79 80 80 75 79
61 63 64 68 77 81 79 80 85 90 94 93 93 92 87 91 90 88 83 82 83 84

GFSNIL_prec_cthk_093.txt.gz
RH
33 34 35 40 48 56 69 79 89 87 88 88 88 92 95 96 96 91 92 86 86 84
34 35 36 39 48 53 63 73 81 84 86 86 86 87 86 90 91 92 92 89 87 87
30 34 36 41 44 51 57 63 71 73 73 73 76 78 80 84 87 88 87 86 85 88
27 30 33 38 44 47 52 58 62 63 64 65 69 72 71 75 81 82 80 79 79 82
25 29 30 33 40 46 50 51 56 62 65 68 69 65 64 64 68 74 74 77 75 73
37 30 31 34 38 43 48 50 52 54 58 59 63 62 65 64 65 66 68 68 66 69
52 36 34 36 38 42 45 47 52 54 56 56 57 58 58 60 60 62 63 64 64 66
65 55 49 48 48 49 50 53 56 59 60 61 59 57 59 58 58 58 59 60 60 61
75 69 64 65 64 63 61 59 58 59 61 63 62 63 66 66 64 62 61 59 61 63
81 80 81 81 81 82 82 82 78 76 72 68 66 66 66 68 71 74 70 68 69 68
82 83 83 85 86 87 87 87 87 85 85 83 81 82 81 78 75 72 72 73 74 75
72 77 81 85 85 85 87 86 87 90 91 89 86 88 89 89 86 84 79 77 76 77
60 62 65 69 74 79 85 85 87 87 93 96 93 91 91 92 97 91 84 80 79 83
47 52 54 56 59 62 64 72 82 86 87 90 90 89 89 90 92 95 94 97 94 93

GFSNIL_prec_cthk_096.txt.gz
RH
25 31 33 35 39 48 54 62 74 83 88 91 97 96 97 97 94 96 95 96 94 97
25 30 32 36 40 48 54 60 67 76 80 84 84 88 91 94 95 95 96 95 87 89
27 30 33 37 40 46 52 58 64 65 69 70 71 73 80 83 86 91 91 87 85 85
28 30 33 36 40 46 49 53 58 60 60 60 62 65 68 72 75 81 82 82 82 81
35 30 32 35 38 45 50 52 54 55 59 62 66 66 68 70 72 72 74 75 77 77
51 37 32 33 36 41 48 52 55 56 58 60 62 63 66 68 68 68 70 74 76 78
62 56 40 35 35 37 43 48 53 56 58 60 62 64 65 66 67 64 66 69 72 75
73 69 62 47 43 42 41 44 49 53 55 59 61 65 68 70 69 67 65 63 65 67
79 76 73 74 62 60 59 57 57 56 56 58 60 64 68 70 71 72 70 68 67 66
82 80 82 81 76 73 74 75 75 78 79 77 74 72 71 73 75 75 74 73 73 71
83 83 83 83 83 83 81 82 82 82 84 86 88 88 89 89 91 90 86 79 71 70
79 80 82 84 85 83 82 82 83 82 86 87 89 87 89 94 94 94 93 95 93 88
64 66 66 70 71 74 78 80 82 86 88 87 88 85 85 89 90 90 89 91 94 93
49 50 52 54 56 58 61 64 68 72 76 79 79 80 83 85 90 91 91 91 92 90

GFSNIL_prec_cthk_099.txt.gz
RH
44 26 30 33 35 39 48 53 62 71 80 83 84 84 91 96 97 97 93 89 91 94
45 28 30 34 36 41 49 57 64 73 82 84 84 85 97 96 96 96 97 95 93 95
45 31 32 36 37 41 48 54 58 65 67 70 73 79 83 87 89 90 95 95 95 97
46 33 32 37 38 41 46 51 56 59 59 60 61 63 66 69 73 73 84 86 88 88
50 36 32 37 38 40 44 48 50 54 56 56 59 62 61 61 63 67 68 69 74 74
58 46 35 36 38 38 41 45 49 51 53 55 56 59 60 61 62 64 65 66 70 74
66 58 49 40 38 39 39 42 46 50 52 54 57 59 61 63 64 65 65 67 70 71
83 73 69 54 44 41 39 40 44 48 50 54 56 58 61 64 66 68 68 69 68 65
92 87 83 77 68 60 54 48 46 46 47 50 52 56 63 68 68 68 70 72 72 70
90 89 87 85 84 83 80 75 73 72 70 70 74 77 77 75 74 74 73 71 73 75
92 90 90 87 86 86 86 86 85 82 80 83 82 81 83 86 90 91 89 88 90 90
90 89 89 89 88 88 89 89 88 86 82 83 82 81 85 90 92 90 95 98 97 94
79 81 81 82 82 84 85 87 87 86 85 84 80 76 79 82 84 90 91 90 90 88
62 60 59 62 63 63 65 65 68 75 76 75 74 76 75 79 82 87 88 89 89 90

GFSNIL_prec_cthk_102.txt.gz
RH
53 48 40 28 33 35 40 46 49 57 62 65 72 81 91 95 98 97 93 96 96 93
56 50 41 31 33 35 38 47 51 62 70 77 81 79 83 87 93 94 94 96 95 98
59 52 41 33 32 34 38 47 51 59 66 72 77 79 78 82 91 93 96 96 97 99
62 53 41 35 34 35 37 45 51 55 61 63 62 61 65 71 79 86 89 91 95 98
66 58 42 35 35 36 38 43 48 52 53 52 54 56 59 62 67 69 68 70 76 84
69 58 53 40 38 38 40 41 45 49 50 50 51 51 52 53 55 55 56 62 66 69
69 67 62 52 41 40 42 43 45 48 50 51 53 54 54 56 56 57 57 58 59 62
78 75 69 57 48 44 43 44 46 49 52 54 55 56 56 56 57 59 58 60 61 60
88 86 85 78 61 55 49 46 46 49 51 53 55 55 55 57 60 61 65 68 68 68
89 89 88 92 88 77 69 63 61 58 60 65 65 65 67 70 73 76 77 78 77 78
95 92 90 92 93 91 90 88 86 83 82 79 79 80 79 83 85 87 89 91 92 92
98 96 97 97 97 99 97 96 95 94 91 89 90 89 86 88 89 89 90 83 84 90
99 98 98 97 99 98 98 97 96 95 94 93 92 89 88 89 87 87 87 89 86 80
86 86 81 85 85 84 86 87 89 89 91 91 88 87 89 88 88 88 87 86 89 91

GFSNIL_prec_cthk_105.txt.gz
RH
55 59 62 54 44 30 34 34 37 45 52 59 63 77 77 89 89 98 96 95 95 94
59 62 63 56 43 29 37 34 38 46 54 61 69 76 85 87 89 94 99 97 97 98
62 65 64 61 42 32 33 34 39 47 55 66 75 77 78 81 82 93 95 99 99 98
65 68 66 66 43 35 34 36 40 46 53 60 64 69 69 68 72 84 92 91 93 93
72 71 69 68 47 37 38 39 40 44 51 55 60 60 60 62 65 70 72 75 79 85
74 76 75 71 52 39 39 41 43 44 48 51 50 50 53 57 58 61 63 62 61 68
77 79 80 76 53 50 46 42 44 46 46 47 50 52 51 52 53 54 56 56 56 58
84 85 85 78 57 57 57 48 46 48 50 50 51 53 54 54 54 55 56 57 57 59
86 87 87 79 66 64 63 55 51 50 53 55 56 52 54 57 59 60 62 65 66 66
87 89 89 85 80 74 69 65 62 57 56 55 52 55 56 59 61 65 70 73 75 77
93 94 94 94 92 89 85 84 75 70 63 61 59 63 68 71 77 80 82 83 86 86
98 98 98 96 97 97 96 92 88 85 81 76 79 83 87 91 93 91 89 88 86 88
99 98 99 99 99 98 98 99 98 97 96 97 96 96 97 98 97 96 94 93 90 89
99 96 98 98 98 98 99 98 98 99 99 98 98 95 95 97 97 97 97 98 97 94

GFSNIL_prec_cthk_108.txt.gz
RH
44 42 44 44 45 54 48 32 27 31 39 47 52 59 64 78 82 90 91 94 95 91
48 45 48 50 51 57 50 36 28 34 42 48 54 59 65 81 80 89 91 96 96 93
52 50 56 55 57 62 51 37 30 33 42 50 58 67 74 81 84 86 90 91 99 99
56 58 64 61 67 64 56 36 33 36 42 49 56 63 68 71 74 80 86 90 98 98
62 68 71 68 73 66 61 39 36 38 43 47 54 60 64 62 59 62 67 76 84 94
71 75 76 74 73 72 64 48 40 43 45 48 52 57 56 54 59 60 64 70 72 74
79 80 79 78 74 77 70 56 46 45 47 51 50 52 51 53 54 56 60 62 62 60
84 85 86 81 78 81 75 64 57 57 51 51 52 50 50 51 52 54 55 56 58 59
87 91 89 84 79 83 83 75 64 65 66 58 51 51 52 53 56 58 59 60 60 61
91 91 94 89 87 90 87 81 71 69 70 62 57 57 57 58 60 61 62 62 64 66
96 97 94 95 93 91 91 87 79 73 73 71 70 70 63 62 63 63 65 67 68 70
96 99 97 97 98 95 95 92 83 80 79 78 78 73 71 69 67 67 70 75 83 88
99 98 97 95 99 97 94 96 95 96 96 96 92 80 78 75 71 78 86 92 94 94
98 98 99 96 98 99 97 99 98 98 98 98 99 96 97 97 96 98 99 99 98 95

GFSNIL_prec_cthk_111.txt.gz
RH
34 39 36 37 40 42 44 46 58 56 39 32 33 39 50 56 61 72 82 90 91 94
37 42 44 43 39 43 47 51 60 57 41 34 36 43 54 57 63 78 85 91 93 97
39 47 55 57 49 47 50 56 61 58 41 35 39 47 56 69 76 82 89 90 91 93
44 51 59 65 55 54 54 60 70 59 42 38 40 47 55 67 74 81 87 84 91 93
64 62 66 73 62 56 62 66 74 62 45 41 40 48 53 61 66 68 71 76 84 93
71 73 80 80 62 59 69 71 79 64 51 45 44 48 51 58 61 63 64 68 73 75
75 77 88 79 73 73 75 77 81 69 59 51 48 52 53 54 56 57 59 61 64 67
74 80 84 81 75 85 80 84 80 80 74 62 55 52 53 52 54 57 58 58 61 64
74 75 78 78 89 86 84 86 84 83 80 72 66 61 55 54 55 56 57 57 58 59
81 85 90 90 87 95 91 89 87 87 88 75 71 72 69 61 58 57 57 57 59 59
91 89 92 94 97 94 95 94 93 90 89 88 74 76 77 72 71 68 66 62 62 64
95 98 97 94 95 95 95 97 97 96 94 95 85 80 80 80 81 82 79 72 67 67
98 98 96 98 98 95 96 95 98 97 97 98 93 89 85 86 84 88 85 80 75 73
97 98 98 98 94 92 98 93 96 97 99 99 98 97 95 97 95 95 88 85 82 76

GFSNIL_prec_cthk_114.txt.gz
RH
46 47 58 54 39 41 42 43 50 47 47 57 61 48 39 42 49 56 62 65 76 88
40 42 54 50 44 44 43 46 48 47 50 60 62 49 41 44 53 60 65 68 82 88
42 39 47 56 50 44 47 49 49 49 52 62 61 50 42 46 55 64 75 79 84 90
47 42 44 54 53 47 57 56 51 51 57 62 62 51 46 48 56 66 76 84 88 89
58 57 60 63 61 58 62 67 57 54 61 64 65 53 49 50 57 65 70 79 82 86
70 72 79 83 74 71 73 81 70 62 67 70 67 59 52 50 54 61 66 68 68 71
81 83 82 83 84 85 89 87 70 71 73 75 72 63 53 55 57 60 63 63 64 70
74 80 85 85 85 88 95 87 79 79 77 78 74 67 60 57 59 60 59 58 59 62
86 79 83 76 86 95 97 94 78 83 82 79 74 71 66 63 62 60 58 57 58 57
78 83 73 85 86 88 90 94 79 83 81 82 86 83 73 66 67 67 62 60 59 58
85 84 80 82 80 81 81 90 93 91 87 87 89 90 88 73 69 70 71 67 63 61
96 92 92 97 97 94 99 95 97 94 91 94 94 95 94 94 81 73 76 78 74 70
98 98 98 98 97 99 97 96 96 96 95 96 99 98 97 98 98 90 79 81 84 85
98 96 97 98 98 97 93 98 99 97 94 92 97 99 99 99 99 98 92 89 90 90

GFSNIL_prec_cthk_117.txt.gz
RH
55 55 56 66 73 74 70 64 52 52 53 49 51 52 55 58 52 45 45 53 61 62
49 52 50 54 59 58 58 57 54 53 53 51 55 56 57 60 53 45 47 54 65 64
46 44 46 50 53 57 62 61 60 56 52 51 56 54 58 61 53 46 48 55 68 73
46 44 41 39 46 50 60 65 71 60 59 53 54 55 59 61 54 50 50 57 67 74
54 53 55 49 52 54 57 66 76 73 69 59 55 56 62 59 57 52 51 57 66 73
66 64 62 58 55 59 64 71 78 78 77 73 62 58 63 62 62 55 51 58 62 69
72 72 66 66 72 71 75 82 83 83 86 90 72 66 69 68 65 60 55 56 61 65
72 76 78 85 86 86 95 90 87 88 92 89 82 76 73 74 71 64 59 58 59 61
73 76 76 83 86 91 89 89 91 90 96 93 81 72 74 74 74 71 64 60 60 59
74 78 80 78 83 83 86 84 85 90 97 96 83 82 78 75 79 76 69 63 60 57
75 78 83 78 79 86 81 85 86 96 96 97 85 88 77 79 85 85 79 69 64 66
81 80 83 82 87 79 83 90 99 96 93 98 88 94 84 88 92 91 92 88 77 71
88 88 93 95 94 90 90 96 90 91 89 89 99 97 95 94 94 94 95 96 90 81
73 89 95 93 95 96 96 98 98 98 98 98 97 99 99 99 99 98 99 99 98 98

GFSNIL_prec_cthk_120.txt.gz
RH
57 55 54 52 54 61 64 68 74 87 71 68 62 59 62 57 55 54 59 56 54 47
61 56 52 53 58 60 62 61 67 72 75 69 63 61 62 60 61 61 60 61 54 46
61 53 50 50 52 53 55 63 60 69 71 71 63 62 62 61 63 64 60 62 53 46
54 51 48 46 45 49 55 60 64 65 68 71 67 63 64 62 63 63 61 62 50 47
54 53 52 50 50 48 50 52 58 63 66 67 68 70 70 71 65 62 61 59 54 52
59 63 62 61 58 57 56 52 53 62 64 65 72 75 75 79 71 65 63 59 58 54
68 70 69 69 67 69 70 65 65 70 71 72 75 80 82 86 80 70 64 64 63 57
72 77 75 76 76 76 76 74 70 72 77 84 86 87 90 94 90 77 69 69 66 62
70 76 79 78 75 74 79 84 91 92 98 96 93 92 93 95 90 83 79 75 74 69
72 72 79 76 76 78 79 85 88 91 92 93 91 92 99 98 95 89 82 77 76 75
83 81 78 77 78 82 83 84 87 87 94 88 88 95 97 94 95 95 85 85 83 81
81 85 84 83 82 84 87 86 87 86 87 84 83 92 98 98 94 93 89 88 92 94
61 65 77 84 86 85 87 87 89 85 86 96 95 96 99 99 95 99 95 94 98 97
57 59 61 64 74 86 90 94 95 93 91 88 92 96 98 98 99 98 97 99 99 96

GFSNIL_prec_cthk_123.txt.gz
RH
70 71 70 66 63 60 58 54 57 62 80 71 69 73 78 75 73 69 65 59 55 56
79 79 72 70 67 61 57 58 62 67 72 82 77 77 75 72 69 69 70 64 59 60
77 76 74 74 69 63 60 59 62 69 74 73 68 69 75 72 70 70 69 67 62 65
81 79 75 72 66 59 57 58 63 65 69 72 66 66 69 73 69 69 68 68 64 70
81 75 71 62 56 51 49 51 57 62 68 71 75 74 72 75 73 73 73 73 71 73
78 77 70 63 60 57 55 56 58 59 59 62 65 69 69 71 70 72 78 77 79 76
76 75 72 69 67 66 66 66 68 66 65 64 60 59 66 73 74 77 82 85 86 80
75 77 75 72 72 72 73 74 77 79 77 76 72 70 75 75 79 89 91 94 92 85
72 71 72 72 74 75 80 79 83 81 81 82 80 78 79 80 87 91 94 98 97 90
76 77 76 74 73 73 76 78 82 84 82 81 99 94 92 93 95 97 98 99 99 93
69 75 78 79 79 77 75 75 80 83 82 81 82 89 96 98 96 97 98 98 98 97
56 57 62 73 82 85 84 82 81 82 85 83 82 85 92 98 96 95 99 97 98 96
52 53 53 54 57 63 80 86 85 84 87 88 85 87 91 94 95 93 91 99 96 98
40 40 42 43 44 47 51 58 69 83 87 88 89 88 86 89 92 98 99 97 98 98